|
NORAD ID: 37550 Int'l Code: 1997-051XK
Perigee: 771.1 km
Apogee: 774.6 km
Inclination: 86.4 °
Period: 100.2 minutes
Semi major axis: 7143 km
Launch date: September 14, 1997
Source: United States (US)
Note: This is SATELLITE DEBRIS
Two Line Element Set (TLE):
1 37550U 97051XK 13141.41056239 .00002026 00000-0 66655-3 0 2064
2 37550 086.3907 186.2408 0002421 281.1892 079.3171 14.37811768200077
Source:
NASA's NSSDC Master Catalog entry for IRIDIUM 33 DEB
|